Regional Weather Roundup
Issued by NWS Mt. Holly, NJ

Home | Current Version | Previous Version | Text Only | Print | Product List | Glossary On
Versions: 1 2 3 4 5 6 7 8 9 10 11 12 13 14 15 16 17 18 19 20 21 22 23 24 25 26 27 28 29 30 31 32 33 34 35 36 37 38 39 40 41 42 43 44 45 46 47 48 49 50
415
ASUS41 KPHI 260112
RWRPHI

REGIONAL WEATHER ROUNDUP
NATIONAL WEATHER SERVICE MOUNT HOLLY NJ
900 PM EDT SUN JUN 25 2017

NOTE:  "FAIR" INDICATES FEW OR NO CLOUDS BELOW 12,000 FEET WITH NO
SIGNIFICANT WEATHER AND/OR OBSTRUCTIONS TO VISIBILITY.

 * = STATION DOES NOT REPORT PRECIPITATION (E.G. RAIN, SNOW, ETC.)
        OR FOG.

NJZ015>026-260200-
SOUTHERN NEW JERSEY

CITY           SKY/WX    TMP DP  RH WIND       PRES   REMARKS
POMONA         MOCLDY    75  61  61 S7        29.97S
WILDWOOD*      CLOUDY    73  64  73 S8        29.99
MILLVILLE      PTCLDY    73  66  78 S3        29.98R
WRIGHTSTOWN    PTCLDY   N/A N/A N/A W5          N/A
MOUNT HOLLY    PTCLDY    78  51  38 W5        29.96R
TRENTON        CLOUDY    78  55  44 NW5       29.95R

$$
NJZ001>014-260200-
NORTHERN NEW JERSEY

CITY           SKY/WX    TMP DP  RH WIND       PRES   REMARKS
SUSSEX         CLEAR     69  55  60 SW3       29.95R
ANDOVER*         N/A     66  59  78 CALM      29.96R
MORRISTOWN     MOCLDY    72  59  64 W3        29.95R
NEWARK         MOCLDY    80  53  39 W12       29.93R
TETERBORO      MOCLDY    78  54  43 W6        29.92R
CALDWELL       MOCLDY    76  56  49 CALM      29.95R
SOMERVILLE     MOCLDY    73  60  63 CALM      29.93
ALLAIRE*       CLOUDY    75  62  64 S6        29.96R
TOMS RIVER*    CLOUDY    74  59  59 S10       29.96S

$$
PAZ043-044-047-054-055-060>062-066>071-260200-
EASTERN PENNSYLVANIA

CITY           SKY/WX    TMP DP  RH WIND       PRES   REMARKS
PHILADELPHIA   MOCLDY    81  52  36 W10       29.97R
NORTH PHILA    PTCLDY    78  55  44 W9        29.97R
BLUE BELL*     MOCLDY    73  55  53 W3        29.99R
DOYLESTOWN     PTCLDY    74  55  51 W3        29.96R
QUAKERTOWN*    MOCLDY    73  57  56 W3        29.99R
PERKASIE*      CLOUDY    66  59  77 CALM      29.99S
POTTSTOWN      CLOUDY    74  52  46 W5        30.00R
LANCASTER      CLEAR     73  49  42 W10       30.00R
COATESVILLE    PTCLDY    72  54  53 W7        30.02R
READING        CLEAR     74  53  48 W7        29.97R
ALLENTOWN      CLEAR     70  52  52 W6        29.97R
MOUNT POCONO   CLEAR     63  51  65 W6        30.01R
HAZLETON         N/A     64  46  52 CALM      30.05R
LEHIGHTON      FAIR      68  54  60 CALM      29.99R
WILKES BARRE   PTCLDY    72  48  42 SW7       29.98R

$$
DEZALL-MDZ008-012-015-019-020-260200-
DELAWARE AND EASTERN MARYLAND

CITY           SKY/WX    TMP DP  RH WIND       PRES   REMARKS
WILMINGTON     CLEAR     77  52  41 W8        29.99R
DOVER          PTCLDY    78  57  47 W6        29.98R
GEORGETOWN     CLOUDY    77  65  66 S6        30.00R
EASTON         MOCLDY    79  50  36 NW6       30.04R
PATUXENT       CLOUDY    77  66  68 SW3       30.00R
OCEAN CITY     MOCLDY    73  69  87 SW5       30.00S
WALLOPS ISLAND CLOUDY    75  67  76 SW7       30.01R
CAMBRIDGE      MOCLDY    75  66  73 CALM      29.99S
SALISBURY      MOCLDY    76  64  66 W6        30.00R

$$
PAZ001-021-NYZ056-072-MDZ011-DCZ001-260200-
OTHER NEARBY LOCATIONS

CITY           SKY/WX    TMP DP  RH WIND       PRES   REMARKS
HARRISBURG     PTCLDY    76  51  41 W10       29.99R
STATE COLLEGE  PTCLDY    66  48  52 W6        30.03R
WILLIAMSPORT   PTCLDY    72  48  42 W7        29.97R
BINGHAMTON     CLOUDY    55  52  88 SW8       30.03R
NEW YORK CITY  PTCLDY    75  60  59 CALM      29.96R
BALTIMORE      PTCLDY    75  49  39 NW9       30.01R
WASHINGTON DC  MOCLDY    79  46  31 NW10      30.03R

$$




USA.gov is the U.S. government's official web portal to all federal, state and local government web resources and services.